owner,sensor,date,latitude,longitude,vertical_datum,wind_speed,wind_to_direction,wind_speed_of_gust,qcFlag 
NDBC,ioos:station:wmo:42057:1,2017-03-05T06:40:00Z,17.0020,-81.5010,5.0,9.0,40.0,11.0,'1111122,1111122,1111122' 
NDBC,ioos:station:wmo:42057:1,2017-03-05T07:50:00Z,17.0020,-81.5010,5.0,10.0,40.0,12.0,'1111122,1111122,1111122' 
NDBC,ioos:station:wmo:42057:1,2017-03-05T08:40:00Z,17.0020,-81.5010,5.0,10.0,40.0,12.0,'1111122,1111122,1111122' 
NDBC,ioos:station:wmo:42057:1,2017-03-05T09:40:00Z,17.0020,-81.5010,5.0,11.0,40.0,13.0,'1111122,1111122,1111122' 
NDBC,ioos:station:wmo:42057:1,2017-03-05T10:40:00Z,17.0020,-81.5010,5.0,10.0,40.0,13.0,'1111122,1111122,1111122' 
NDBC,ioos:station:wmo:42057:1,2017-03-05T11:40:00Z,17.0020,-81.5010,5.0,10.0,50.0,12.0,'1111122,1111122,1111122' 
NDBC,ioos:station:wmo:42057:1,2017-03-05T12:40:00Z,17.0020,-81.5010,5.0,10.0,50.0,12.0,'1111122,1111122,1111122' 
NDBC,ioos:station:wmo:42057:1,2017-03-05T13:40:00Z,17.0020,-81.5010,5.0,10.0,50.0,12.0,'1111122,1111122,1111122' 
NDBC,ioos:station:wmo:42057:1,2017-03-05T14:40:00Z,17.0020,-81.5010,5.0,11.0,60.0,14.0,'1111122,1111122,1111122' 
NDBC,ioos:station:wmo:42057:1,2017-03-05T15:50:00Z,17.0020,-81.5010,5.0,10.0,70.0,12.0,'1111122,1111122,1111122' 
NDBC,ioos:station:wmo:42057:1,2017-03-05T16:40:00Z,17.0020,-81.5010,5.0,9.0,70.0,11.0,'1111122,1111122,1111122' 
NDBC,ioos:station:wmo:42057:1,2017-03-05T17:50:00Z,17.0020,-81.5010,5.0,9.0,60.0,11.0,'1111122,1111122,1111122' 
NDBC,ioos:station:wmo:42057:1,2017-03-05T18:40:00Z,17.0020,-81.5010,5.0,9.0,60.0,11.0,'1111122,1111122,1111122' 
NDBC,ioos:station:wmo:42057:1,2017-03-05T19:40:00Z,17.0020,-81.5010,5.0,9.0,60.0,11.0,'1111122,1111122,1111122' 
NDBC,ioos:station:wmo:42057:1,2017-03-05T20:40:00Z,17.0020,-81.5010,5.0,9.0,60.0,12.0,'1111122,1111122,1111122' 
NDBC,ioos:station:wmo:42057:1,2017-03-05T21:40:00Z,17.0020,-81.5010,5.0,9.0,60.0,12.0,'1111122,1111122,1111122' 
NDBC,ioos:station:wmo:42057:1,2017-03-05T22:40:00Z,17.0020,-81.5010,5.0,9.0,60.0,12.0,'1111122,1111122,1111122' 
NDBC,ioos:station:wmo:42057:1,2017-03-05T23:50:00Z,17.0020,-81.5010,5.0,9.0,60.0,12.0,'1111122,1111122,1111122' 
NDBC,ioos:station:wmo:42057:1,2017-03-06T00:40:00Z,17.0020,-81.5010,5.0,9.0,60.0,11.0,'1111122,1111122,1111122' 
NDBC,ioos:station:wmo:42057:1,2017-03-06T01:40:00Z,17.0020,-81.5010,5.0,9.0,60.0,11.0,'1111122,1111122,1111122' 
NDBC,ioos:station:wmo:42057:1,2017-03-06T02:40:00Z,17.0020,-81.5010,5.0,9.0,60.0,12.0,'1111122,1111122,1111122' 
NDBC,ioos:station:wmo:42057:1,2017-03-06T03:40:00Z,17.0020,-81.5010,5.0,9.0,50.0,12.0,'1111122,1111122,1111122' 
NDBC,ioos:station:wmo:42057:1,2017-03-06T04:40:00Z,17.0020,-81.5010,5.0,9.0,50.0,11.0,'1111122,1111122,1111122' 
NDBC,ioos:station:wmo:42057:1,2017-03-06T05:40:00Z,17.0020,-81.5010,5.0,9.0,50.0,12.0,'1111122,1111122,1111122' 
NDBC,ioos:station:wmo:42057:1,2017-03-06T06:40:00Z,17.0020,-81.5010,5.0,5.0,90.0,6.0,'1111122,1111122,1111122' 
NDBC,ioos:station:wmo:42057:1,2017-03-06T07:40:00Z,17.0020,-81.5010,5.0,6.0,70.0,8.0,'1111122,1111122,1111122' 
NDBC,ioos:station:wmo:42057:1,2017-03-06T08:50:00Z,17.0020,-81.5010,5.0,11.0,60.0,13.0,'1111122,1111122,1111122' 
NDBC,ioos:station:wmo:42057:1,2017-03-06T09:40:00Z,17.0020,-81.5010,5.0,6.0,40.0,10.0,'1111122,1111122,1111122' 
NDBC,ioos:station:wmo:42057:1,2017-03-06T10:40:00Z,17.0020,-81.5010,5.0,6.0,80.0,9.0,'1111122,1111122,1111122' 
NDBC,ioos:station:wmo:42057:1,2017-03-06T11:50:00Z,17.0020,-81.5010,5.0,5.0,40.0,7.0,'1111122,1111122,1111122' 
NDBC,ioos:station:wmo:42057:1,2017-03-06T12:40:00Z,17.0020,-81.5010,5.0,7.0,90.0,9.0,'1111122,1111122,1111122' 
NDBC,ioos:station:wmo:42057:1,2017-03-06T13:30:00Z,17.0020,-81.5010,5.0,7.0,100.0,11.0,'1111122,1111122,1111122' 
NDBC,ioos:station:wmo:42057:1,2017-03-06T14:40:00Z,17.0020,-81.5010,5.0,9.0,70.0,11.0,'1111122,1111122,1111122' 
NDBC,ioos:station:wmo:42057:1,2017-03-06T15:40:00Z,17.0020,-81.5010,5.0,8.0,50.0,10.0,'1111122,1111122,1111122' 
NDBC,ioos:station:wmo:42057:1,2017-03-06T16:40:00Z,17.0020,-81.5010,5.0,9.0,60.0,11.0,'1111122,1111122,1111122' 
NDBC,ioos:station:wmo:42057:1,2017-03-06T17:40:00Z,17.0020,-81.5010,5.0,9.0,70.0,11.0,'1111122,1111122,1111122' 
NDBC,ioos:station:wmo:42057:1,2017-03-06T18:40:00Z,17.0020,-81.5010,5.0,9.0,70.0,12.0,'1111122,1111122,1111122' 
NDBC,ioos:station:wmo:42057:1,2017-03-06T19:50:00Z,17.0020,-81.5010,5.0,8.0,70.0,10.0,'1111122,1111122,1111122' 
NDBC,ioos:station:wmo:42057:1,2017-03-06T20:40:00Z,17.0020,-81.5010,5.0,9.0,60.0,11.0,'1111122,1111122,1111122' 
NDBC,ioos:station:wmo:42057:1,2017-03-06T21:40:00Z,17.0020,-81.5010,5.0,7.0,60.0,10.0,'1111122,1111122,1111122' 
NDBC,ioos:station:wmo:42057:1,2017-03-06T22:40:00Z,17.0020,-81.5010,5.0,9.0,70.0,11.0,'1111122,1111122,1111122' 
NDBC,ioos:station:wmo:42057:1,2017-03-06T23:50:00Z,17.0020,-81.5010,5.0,8.0,70.0,10.0,'1111122,1111122,1111122' 
NDBC,ioos:station:wmo:42057:1,2017-03-07T00:40:00Z,17.0020,-81.5010,5.0,9.0,80.0,11.0,'1111122,1111122,1111122' 
NDBC,ioos:station:wmo:42057:1,2017-03-07T01:20:00Z,17.0020,-81.5010,5.0,9.0,70.0,11.0,'1111122,1111122,1111122' 
NDBC,ioos:station:wmo:42057:1,2017-03-07T02:50:00Z,17.0020,-81.5010,5.0,8.0,70.0,11.0,'1111122,1111122,1111122' 
NDBC,ioos:station:wmo:42057:1,2017-03-07T03:40:00Z,17.0020,-81.5010,5.0,10.0,70.0,12.0,'1111122,1111122,1111122' 
NDBC,ioos:station:wmo:42057:1,2017-03-07T04:40:00Z,17.0020,-81.5010,5.0,10.0,70.0,12.0,'1111122,1111122,1111122' 
NDBC,ioos:station:wmo:42057:1,2017-03-07T05:40:00Z,17.0020,-81.5010,5.0,10.0,70.0,12.0,'1111122,1111122,1111122' 
NDBC,ioos:station:wmo:42057:1,2017-03-07T06:40:00Z,17.0020,-81.5010,5.0,9.0,70.0,12.0,'1111122,1111122,1111122' 
NDBC,ioos:station:wmo:42057:1,2017-03-07T07:50:00Z,17.0020,-81.5010,5.0,8.0,60.0,11.0,'1111122,1111122,1111122' 
NDBC,ioos:station:wmo:42057:1,2017-03-07T08:40:00Z,17.0020,-81.5010,5.0,10.0,70.0,12.0,'1111122,1111122,1111122' 
NDBC,ioos:station:wmo:42057:1,2017-03-07T09:40:00Z,17.0020,-81.5010,5.0,12.0,80.0,15.0,'1111122,1111122,1111122' 
NDBC,ioos:station:wmo:42057:1,2017-03-07T10:40:00Z,17.0020,-81.5010,5.0,12.0,80.0,14.0,'1111122,1111122,1111122' 
NDBC,ioos:station:wmo:42057:1,2017-03-07T11:40:00Z,17.0020,-81.5010,5.0,9.0,70.0,12.0,'1111122,1111122,1111122' 
NDBC,ioos:station:wmo:42057:1,2017-03-07T12:40:00Z,17.0020,-81.5010,5.0,9.0,70.0,11.0,'1111122,1111122,1111122' 
NDBC,ioos:station:wmo:42057:1,2017-03-07T13:10:00Z,17.0020,-81.5010,5.0,10.0,70.0,13.0,'1111122,1111122,1111122' 
NDBC,ioos:station:wmo:42057:1,2017-03-07T14:50:00Z,17.0020,-81.5010,5.0,10.0,70.0,12.0,'1111122,1111122,1111122' 
NDBC,ioos:station:wmo:42057:1,2017-03-07T15:40:00Z,17.0020,-81.5010,5.0,10.0,80.0,12.0,'1111122,1111122,1111122' 
NDBC,ioos:station:wmo:42057:1,2017-03-07T16:40:00Z,17.0020,-81.5010,5.0,9.0,70.0,11.0,'1111122,1111122,1111122' 
NDBC,ioos:station:wmo:42057:1,2017-03-07T17:40:00Z,17.0020,-81.5010,5.0,9.0,70.0,11.0,'1111122,1111122,1111122' 
NDBC,ioos:station:wmo:42057:1,2017-03-07T18:50:00Z,17.0020,-81.5010,5.0,8.0,70.0,10.0,'1111122,1111122,1111122' 
NDBC,ioos:station:wmo:42057:1,2017-03-07T19:40:00Z,17.0020,-81.5010,5.0,8.0,70.0,11.0,'1111122,1111122,1111122' 
NDBC,ioos:station:wmo:42057:1,2017-03-07T20:40:00Z,17.0020,-81.5010,5.0,8.0,70.0,10.0,'1111122,1111122,1111122' 
NDBC,ioos:station:wmo:42057:1,2017-03-07T21:40:00Z,17.0020,-81.5010,5.0,8.0,70.0,10.0,'1111122,1111122,1111122' 
NDBC,ioos:station:wmo:42057:1,2017-03-07T22:50:00Z,17.0020,-81.5010,5.0,8.0,70.0,11.0,'1111122,1111122,1111122' 
NDBC,ioos:station:wmo:42057:1,2017-03-08T00:40:00Z,17.0020,-81.5010,5.0,8.0,60.0,10.0,'1111122,1111122,1111122' 
NDBC,ioos:station:wmo:42057:1,2017-03-08T01:10:00Z,17.0020,-81.5010,5.0,8.0,60.0,10.0,'1111122,1111122,1111122' 
NDBC,ioos:station:wmo:42057:1,2017-03-08T02:40:00Z,17.0020,-81.5010,5.0,8.0,60.0,10.0,'1111122,1111122,1111122' 
NDBC,ioos:station:wmo:42057:1,2017-03-08T03:40:00Z,17.0020,-81.5010,5.0,9.0,60.0,11.0,'1111122,1111122,1111122' 
NDBC,ioos:station:wmo:42057:1,2017-03-08T04:40:00Z,17.0020,-81.5010,5.0,8.0,60.0,10.0,'1111122,1111122,1111122' 
NDBC,ioos:station:wmo:42057:1,2017-03-08T05:50:00Z,17.0020,-81.5010,5.0,8.0,60.0,9.0,'1111122,1111122,1111122' 
NDBC,ioos:station:wmo:42057:1,2017-03-08T06:40:00Z,17.0020,-81.5010,5.0,7.0,60.0,9.0,'1111122,1111122,1111122' 
NDBC,ioos:station:wmo:42057:1,2017-03-08T07:40:00Z,17.0020,-81.5010,5.0,7.0,60.0,9.0,'1111122,1111122,1111122' 
NDBC,ioos:station:wmo:42057:1,2017-03-08T08:40:00Z,17.0020,-81.5010,5.0,6.0,60.0,8.0,'1111122,1111122,1111122' 
NDBC,ioos:station:wmo:42057:1,2017-03-08T09:50:00Z,17.0020,-81.5010,5.0,6.0,80.0,10.0,'1111122,1111122,1111122' 
NDBC,ioos:station:wmo:42057:1,2017-03-08T10:40:00Z,17.0020,-81.5010,5.0,7.0,80.0,9.0,'1111122,1111122,1111122' 
NDBC,ioos:station:wmo:42057:1,2017-03-08T11:20:00Z,17.0020,-81.5010,5.0,8.0,20.0,12.0,'1111122,1111122,1111122' 
NDBC,ioos:station:wmo:42057:1,2017-03-08T12:40:00Z,17.0020,-81.5010,5.0,8.0,40.0,10.0,'1111122,1111122,1111122' 
NDBC,ioos:station:wmo:42057:1,2017-03-08T13:30:00Z,17.0020,-81.5010,5.0,8.0,40.0,11.0,'1111122,1111122,1111122' 
NDBC,ioos:station:wmo:42057:1,2017-03-08T14:50:00Z,17.0020,-81.5010,5.0,9.0,50.0,11.0,'1111122,1111122,1111122' 
NDBC,ioos:station:wmo:42057:1,2017-03-08T15:50:00Z,17.0020,-81.5010,5.0,9.0,50.0,10.0,'1111122,1111122,1111122' 
NDBC,ioos:station:wmo:42057:1,2017-03-08T16:40:00Z,17.0020,-81.5010,5.0,9.0,50.0,11.0,'1111122,1111122,1111122' 
NDBC,ioos:station:wmo:42057:1,2017-03-08T17:40:00Z,17.0020,-81.5010,5.0,8.0,60.0,10.0,'1111122,1111122,1111122' 
NDBC,ioos:station:wmo:42057:1,2017-03-08T18:40:00Z,17.0020,-81.5010,5.0,8.0,60.0,11.0,'1111122,1111122,1111122' 
NDBC,ioos:station:wmo:42057:1,2017-03-08T19:50:00Z,17.0020,-81.5010,5.0,8.0,50.0,10.0,'1111122,1111122,1111122' 
NDBC,ioos:station:wmo:42057:1,2017-03-08T20:40:00Z,17.0020,-81.5010,5.0,8.0,60.0,10.0,'1111122,1111122,1111122' 
NDBC,ioos:station:wmo:42057:1,2017-03-08T21:40:00Z,17.0020,-81.5010,5.0,7.0,50.0,9.0,'1111122,1111122,1111122' 
NDBC,ioos:station:wmo:42057:1,2017-03-08T22:40:00Z,17.0020,-81.5010,5.0,6.0,60.0,8.0,'1111122,1111122,1111122' 
NDBC,ioos:station:wmo:42057:1,2017-03-08T23:30:00Z,17.0020,-81.5010,5.0,7.0,60.0,10.0,'1111122,1111122,1111122' 
NDBC,ioos:station:wmo:42057:1,2017-03-09T00:50:00Z,17.0020,-81.5010,5.0,7.0,70.0,8.0,'1111122,1111122,1111122' 
NDBC,ioos:station:wmo:42057:1,2017-03-09T01:50:00Z,17.0020,-81.5010,5.0,7.0,70.0,9.0,'1111122,1111122,1111122' 
NDBC,ioos:station:wmo:42057:1,2017-03-09T02:40:00Z,17.0020,-81.5010,5.0,8.0,60.0,10.0,'1111122,1111122,1111122' 
NDBC,ioos:station:wmo:42057:1,2017-03-09T03:50:00Z,17.0020,-81.5010,5.0,7.0,60.0,10.0,'1111122,1111122,1111122' 
NDBC,ioos:station:wmo:42057:1,2017-03-09T04:50:00Z,17.0020,-81.5010,5.0,7.0,60.0,9.0,'1111122,1111122,1111122' 
NDBC,ioos:station:wmo:42057:1,2017-03-09T05:40:00Z,17.0020,-81.5010,5.0,7.0,50.0,9.0,'1111122,1111122,1111122' 
NDBC,ioos:station:wmo:42057:1,2017-03-09T06:40:00Z,17.0020,-81.5010,5.0,7.0,50.0,9.0,'1111122,1111122,1111122' 
NDBC,ioos:station:wmo:42057:1,2017-03-09T07:40:00Z,17.0020,-81.5010,5.0,6.0,60.0,8.0,'1111122,1111122,1111122' 
NDBC,ioos:station:wmo:42057:1,2017-03-09T08:40:00Z,17.0020,-81.5010,5.0,6.0,60.0,8.0,'1111122,1111122,1111122' 
NDBC,ioos:station:wmo:42057:1,2017-03-09T09:40:00Z,17.0020,-81.5010,5.0,6.0,70.0,8.0,'1111122,1111122,1111122' 
NDBC,ioos:station:wmo:42057:1,2017-03-09T10:40:00Z,17.0020,-81.5010,5.0,6.0,60.0,8.0,'1111122,1111122,1111122' 
NDBC,ioos:station:wmo:42057:1,2017-03-09T11:40:00Z,17.0020,-81.5010,5.0,8.0,50.0,10.0,'1111122,1111122,1111122' 
NDBC,ioos:station:wmo:42057:1,2017-03-09T12:40:00Z,17.0020,-81.5010,5.0,9.0,40.0,11.0,'1111122,1111122,1111122' 
NDBC,ioos:station:wmo:42057:1,2017-03-09T13:40:00Z,17.0020,-81.5010,5.0,8.0,50.0,11.0,'1111122,1111122,1111122' 
NDBC,ioos:station:wmo:42057:1,2017-03-09T14:50:00Z,17.0020,-81.5010,5.0,7.0,70.0,11.0,'1111122,1111122,1111122' 
NDBC,ioos:station:wmo:42057:1,2017-03-09T15:40:00Z,17.0020,-81.5010,5.0,11.0,70.0,14.0,'1111122,1111122,1111122' 
NDBC,ioos:station:wmo:42057:1,2017-03-09T16:40:00Z,17.0020,-81.5010,5.0,7.0,60.0,9.0,'1111122,1111122,1111122' 
NDBC,ioos:station:wmo:42057:1,2017-03-09T17:40:00Z,17.0020,-81.5010,5.0,9.0,70.0,11.0,'1111122,1111122,1111122' 
NDBC,ioos:station:wmo:42057:1,2017-03-09T18:50:00Z,17.0020,-81.5010,5.0,8.0,70.0,9.0,'1111122,1111122,1111122' 
NDBC,ioos:station:wmo:42057:1,2017-03-09T19:40:00Z,17.0020,-81.5010,5.0,7.0,100.0,8.0,'1111122,1111122,1111122' 
NDBC,ioos:station:wmo:42057:1,2017-03-09T20:40:00Z,17.0020,-81.5010,5.0,7.0,100.0,8.0,'1111122,1111122,1111122' 
NDBC,ioos:station:wmo:42057:1,2017-03-09T21:40:00Z,17.0020,-81.5010,5.0,5.0,90.0,6.0,'1111122,1111122,1111122' 
NDBC,ioos:station:wmo:42057:1,2017-03-09T22:50:00Z,17.0020,-81.5010,5.0,5.0,70.0,6.0,'1111122,1111122,1111122' 
NDBC,ioos:station:wmo:42057:1,2017-03-09T23:50:00Z,17.0020,-81.5010,5.0,5.0,80.0,6.0,'1111122,1111122,1111122' 
NDBC,ioos:station:wmo:42057:1,2017-03-10T00:40:00Z,17.0020,-81.5010,5.0,5.0,70.0,7.0,'1111122,1111122,1111122' 
NDBC,ioos:station:wmo:42057:1,2017-03-10T01:00:00Z,17.0020,-81.5010,5.0,5.0,60.0,6.0,'1111122,1111122,1111122' 
NDBC,ioos:station:wmo:42057:1,2017-03-10T02:40:00Z,17.0020,-81.5010,5.0,7.0,70.0,8.0,'1111122,1111122,1111122' 
NDBC,ioos:station:wmo:42057:1,2017-03-10T03:40:00Z,17.0020,-81.5010,5.0,6.0,70.0,8.0,'1111122,1111122,1111122' 
NDBC,ioos:station:wmo:42057:1,2017-03-10T04:30:00Z,17.0020,-81.5010,5.0,6.0,70.0,8.0,'1111122,1111122,1111122' 
NDBC,ioos:station:wmo:42057:1,2017-03-10T05:40:00Z,17.0020,-81.5010,5.0,6.0,70.0,8.0,'1111122,1111122,1111122' 
NDBC,ioos:station:wmo:42057:1,2017-03-10T07:20:00Z,17.0020,-81.5010,5.0,6.0,50.0,8.0,'1111122,1111122,1111122' 
NDBC,ioos:station:wmo:42057:1,2017-03-10T07:40:00Z,17.0020,-81.5010,5.0,6.0,50.0,8.0,'1111122,1111122,1111122' 
NDBC,ioos:station:wmo:42057:1,2017-03-10T08:40:00Z,17.0020,-81.5010,5.0,6.0,60.0,8.0,'1111122,1111122,1111122' 
NDBC,ioos:station:wmo:42057:1,2017-03-10T09:40:00Z,17.0020,-81.5010,5.0,5.0,60.0,6.0,'1111122,1111122,1111122' 
NDBC,ioos:station:wmo:42057:1,2017-03-10T10:40:00Z,17.0020,-81.5010,5.0,5.0,60.0,6.0,'1111122,1111122,1111122' 
NDBC,ioos:station:wmo:42057:1,2017-03-10T11:40:00Z,17.0020,-81.5010,5.0,5.0,60.0,6.0,'1111122,1111122,1111122' 
NDBC,ioos:station:wmo:42057:1,2017-03-10T12:40:00Z,17.0020,-81.5010,5.0,5.0,60.0,6.0,'1111122,1111122,1111122' 
NDBC,ioos:station:wmo:42057:1,2017-03-10T13:40:00Z,17.0020,-81.5010,5.0,5.0,60.0,7.0,'1111122,1111122,1111122' 
NDBC,ioos:station:wmo:42057:1,2017-03-10T14:40:00Z,17.0020,-81.5010,5.0,7.0,70.0,9.0,'1111122,1111122,1111122' 
NDBC,ioos:station:wmo:42057:1,2017-03-10T15:40:00Z,17.0020,-81.5010,5.0,7.0,70.0,8.0,'1111122,1111122,1111122' 
NDBC,ioos:station:wmo:42057:1,2017-03-10T16:40:00Z,17.0020,-81.5010,5.0,7.0,70.0,9.0,'1111122,1111122,1111122' 
NDBC,ioos:station:wmo:42057:1,2017-03-10T17:40:00Z,17.0020,-81.5010,5.0,6.0,70.0,8.0,'1111122,1111122,1111122' 
NDBC,ioos:station:wmo:42057:1,2017-03-10T18:40:00Z,17.0020,-81.5010,5.0,5.0,60.0,7.0,'1111122,1111122,1111122' 
NDBC,ioos:station:wmo:42057:1,2017-03-10T19:40:00Z,17.0020,-81.5010,5.0,6.0,50.0,7.0,'1111122,1111122,1111122' 
NDBC,ioos:station:wmo:42057:1,2017-03-10T20:50:00Z,17.0020,-81.5010,5.0,6.0,50.0,7.0,'1111122,1111122,1111122' 
NDBC,ioos:station:wmo:42057:1,2017-03-10T21:40:00Z,17.0020,-81.5010,5.0,6.0,50.0,7.0,'1111122,1111122,1111122' 
NDBC,ioos:station:wmo:42057:1,2017-03-10T22:40:00Z,17.0020,-81.5010,5.0,6.0,60.0,7.0,'1111122,1111122,1111122' 
NDBC,ioos:station:wmo:42057:1,2017-03-10T23:40:00Z,17.0020,-81.5010,5.0,5.0,50.0,7.0,'1111122,1111122,1111122' 
NDBC,ioos:station:wmo:42057:1,2017-03-11T00:40:00Z,17.0020,-81.5010,5.0,6.0,50.0,8.0,'1111122,1111122,1111122' 
NDBC,ioos:station:wmo:42057:1,2017-03-11T01:40:00Z,17.0020,-81.5010,5.0,7.0,50.0,8.0,'1111122,1111122,1111122' 
NDBC,ioos:station:wmo:42057:1,2017-03-11T02:40:00Z,17.0020,-81.5010,5.0,7.0,40.0,8.0,'1111122,1111122,1111122' 
NDBC,ioos:station:wmo:42057:1,2017-03-11T03:30:00Z,17.0020,-81.5010,5.0,6.0,50.0,8.0,'1111122,1111122,1111122' 
NDBC,ioos:station:wmo:42057:1,2017-03-11T05:40:00Z,17.0020,-81.5010,5.0,7.0,40.0,8.0,'1111122,1111122,1111122' 
NDBC,ioos:station:wmo:42057:1,2017-03-11T06:30:00Z,17.0020,-81.5010,5.0,6.0,40.0,8.0,'1111122,1111122,1111122' 
NDBC,ioos:station:wmo:42057:1,2017-03-11T07:40:00Z,17.0020,-81.5010,5.0,6.0,50.0,8.0,'1111122,1111122,1111122' 
NDBC,ioos:station:wmo:42057:1,2017-03-11T08:40:00Z,17.0020,-81.5010,5.0,6.0,40.0,7.0,'1111122,1111122,1111122' 
NDBC,ioos:station:wmo:42057:1,2017-03-11T09:30:00Z,17.0020,-81.5010,5.0,6.0,30.0,8.0,'1111122,1111122,1111122' 
NDBC,ioos:station:wmo:42057:1,2017-03-11T10:40:00Z,17.0020,-81.5010,5.0,6.0,40.0,8.0,'1111122,1111122,1111122' 
NDBC,ioos:station:wmo:42057:1,2017-03-11T11:40:00Z,17.0020,-81.5010,5.0,6.0,40.0,8.0,'1111122,1111122,1111122' 
NDBC,ioos:station:wmo:42057:1,2017-03-11T12:40:00Z,17.0020,-81.5010,5.0,7.0,50.0,9.0,'1111122,1111122,1111122' 
NDBC,ioos:station:wmo:42057:1,2017-03-11T13:40:00Z,17.0020,-81.5010,5.0,6.0,50.0,8.0,'1111122,1111122,1111122' 
NDBC,ioos:station:wmo:42057:1,2017-03-11T14:40:00Z,17.0020,-81.5010,5.0,7.0,50.0,8.0,'1111122,1111122,1111122' 
NDBC,ioos:station:wmo:42057:1,2017-03-11T15:50:00Z,17.0020,-81.5010,5.0,6.0,50.0,8.0,'1111122,1111122,1111122' 
NDBC,ioos:station:wmo:42057:1,2017-03-11T16:40:00Z,17.0020,-81.5010,5.0,6.0,40.0,8.0,'1111122,1111122,1111122' 
NDBC,ioos:station:wmo:42057:1,2017-03-11T17:40:00Z,17.0020,-81.5010,5.0,7.0,40.0,8.0,'1111122,1111122,1111122' 
NDBC,ioos:station:wmo:42057:1,2017-03-11T18:40:00Z,17.0020,-81.5010,5.0,7.0,40.0,8.0,'1111122,1111122,1111122' 
NDBC,ioos:station:wmo:42057:1,2017-03-11T19:40:00Z,17.0020,-81.5010,5.0,5.0,50.0,8.0,'1111122,1111122,1111122' 
NDBC,ioos:station:wmo:42057:1,2017-03-11T20:50:00Z,17.0020,-81.5010,5.0,7.0,40.0,8.0,'1111122,1111122,1111122' 
NDBC,ioos:station:wmo:42057:1,2017-03-11T21:40:00Z,17.0020,-81.5010,5.0,7.0,50.0,9.0,'1111122,1111122,1111122' 
NDBC,ioos:station:wmo:42057:1,2017-03-11T22:40:00Z,17.0020,-81.5010,5.0,8.0,50.0,9.0,'1111122,1111122,1111122' 
NDBC,ioos:station:wmo:42057:1,2017-03-11T23:40:00Z,17.0020,-81.5010,5.0,7.0,50.0,9.0,'1111122,1111122,1111122' 
NDBC,ioos:station:wmo:42057:1,2017-03-12T00:40:00Z,17.0020,-81.5010,5.0,7.0,50.0,9.0,'1111122,1111122,1111122' 
NDBC,ioos:station:wmo:42057:1,2017-03-12T01:50:00Z,17.0020,-81.5010,5.0,7.0,50.0,9.0,'1111122,1111122,1111122' 
NDBC,ioos:station:wmo:42057:1,2017-03-12T02:40:00Z,17.0020,-81.5010,5.0,7.0,50.0,9.0,'1111122,1111122,1111122' 
NDBC,ioos:station:wmo:42057:1,2017-03-12T03:40:00Z,17.0020,-81.5010,5.0,7.0,60.0,8.0,'1111122,1111122,1111122' 
NDBC,ioos:station:wmo:42057:1,2017-03-12T04:50:00Z,17.0020,-81.5010,5.0,7.0,60.0,8.0,'1111122,1111122,1111122' 
NDBC,ioos:station:wmo:42057:1,2017-03-12T05:50:00Z,17.0020,-81.5010,5.0,7.0,50.0,9.0,'1111122,1111122,1111122' 
NDBC,ioos:station:wmo:42057:1,2017-03-12T06:40:00Z,17.0020,-81.5010,5.0,7.0,60.0,8.0,'1111122,1111122,1111122' 
NDBC,ioos:station:wmo:42057:1,2017-03-12T07:40:00Z,17.0020,-81.5010,5.0,6.0,60.0,8.0,'1111122,1111122,1111122' 
NDBC,ioos:station:wmo:42057:1,2017-03-12T08:40:00Z,17.0020,-81.5010,5.0,6.0,70.0,7.0,'1111122,1111122,1111122' 
NDBC,ioos:station:wmo:42057:1,2017-03-12T09:40:00Z,17.0020,-81.5010,5.0,6.0,70.0,7.0,'1111122,1111122,1111122' 
NDBC,ioos:station:wmo:42057:1,2017-03-12T10:40:00Z,17.0020,-81.5010,5.0,5.0,80.0,7.0,'1111122,1111122,1111122' 
NDBC,ioos:station:wmo:42057:1,2017-03-12T11:40:00Z,17.0020,-81.5010,5.0,6.0,70.0,8.0,'1111122,1111122,1111122' 
NDBC,ioos:station:wmo:42057:1,2017-03-12T12:40:00Z,17.0020,-81.5010,5.0,6.0,60.0,7.0,'1111122,1111122,1111122' 
NDBC,ioos:station:wmo:42057:1,2017-03-12T13:40:00Z,17.0020,-81.5010,5.0,6.0,70.0,6.0,'1111122,1111122,1111122' 
NDBC,ioos:station:wmo:42057:1,2017-03-12T14:40:00Z,17.0020,-81.5010,5.0,5.0,80.0,7.0,'1111122,1111122,1111122' 
NDBC,ioos:station:wmo:42057:1,2017-03-12T15:50:00Z,17.0020,-81.5010,5.0,5.0,80.0,6.0,'1111122,1111122,1111122' 
NDBC,ioos:station:wmo:42057:1,2017-03-12T16:40:00Z,17.0020,-81.5010,5.0,5.0,70.0,6.0,'1111122,1111122,1111122' 
NDBC,ioos:station:wmo:42057:1,2017-03-12T17:40:00Z,17.0020,-81.5010,5.0,5.0,70.0,6.0,'1111122,1111122,1111122' 
NDBC,ioos:station:wmo:42057:1,2017-03-12T18:40:00Z,17.0020,-81.5010,5.0,5.0,70.0,6.0,'1111122,1111122,1111122' 
NDBC,ioos:station:wmo:42057:1,2017-03-12T19:50:00Z,17.0020,-81.5010,5.0,5.0,60.0,6.0,'1111122,1111122,1111122' 
NDBC,ioos:station:wmo:42057:1,2017-03-12T20:50:00Z,17.0020,-81.5010,5.0,6.0,60.0,8.0,'1111122,1111122,1111122' 
NDBC,ioos:station:wmo:42057:1,2017-03-12T21:50:00Z,17.0020,-81.5010,5.0,6.0,70.0,7.0,'1111122,1111122,1111122' 
NDBC,ioos:station:wmo:42057:1,2017-03-12T22:50:00Z,17.0020,-81.5010,5.0,6.0,60.0,8.0,'1111122,1111122,1111122' 
NDBC,ioos:station:wmo:42057:1,2017-03-12T23:40:00Z,17.0020,-81.5010,5.0,6.0,60.0,8.0,'1111122,1111122,1111122' 
NDBC,ioos:station:wmo:42057:1,2017-03-13T00:40:00Z,17.0020,-81.5010,5.0,6.0,70.0,8.0,'1111122,1111122,1111122' 
NDBC,ioos:station:wmo:42057:1,2017-03-13T01:40:00Z,17.0020,-81.5010,5.0,5.0,80.0,7.0,'1111122,1111122,1111122' 
NDBC,ioos:station:wmo:42057:1,2017-03-13T02:50:00Z,17.0020,-81.5010,5.0,5.0,80.0,7.0,'1111122,1111122,1111122' 
NDBC,ioos:station:wmo:42057:1,2017-03-13T03:40:00Z,17.0020,-81.5010,5.0,6.0,80.0,7.0,'1111122,1111122,1111122' 
NDBC,ioos:station:wmo:42057:1,2017-03-13T04:50:00Z,17.0020,-81.5010,5.0,5.0,80.0,6.0,'1111122,1111122,1111122' 
NDBC,ioos:station:wmo:42057:1,2017-03-13T05:40:00Z,17.0020,-81.5010,5.0,6.0,90.0,7.0,'1111122,1111122,1111122' 
NDBC,ioos:station:wmo:42057:1,2017-03-13T06:50:00Z,17.0020,-81.5010,5.0,5.0,90.0,6.0,'1111122,1111122,1111122' 
NDBC,ioos:station:wmo:42057:1,2017-03-13T07:40:00Z,17.0020,-81.5010,5.0,6.0,110.0,7.0,'1111122,1111122,1111122' 
NDBC,ioos:station:wmo:42057:1,2017-03-13T08:40:00Z,17.0020,-81.5010,5.0,5.0,100.0,7.0,'1111122,1111122,1111122' 
NDBC,ioos:station:wmo:42057:1,2017-03-13T09:50:00Z,17.0020,-81.5010,5.0,4.0,80.0,5.0,'1111122,1111122,1111122' 
NDBC,ioos:station:wmo:42057:1,2017-03-13T10:40:00Z,17.0020,-81.5010,5.0,3.0,70.0,4.0,'1111122,1111122,1111122' 
NDBC,ioos:station:wmo:42057:1,2017-03-13T11:40:00Z,17.0020,-81.5010,5.0,3.0,100.0,4.0,'1111122,1111122,1111122' 
NDBC,ioos:station:wmo:42057:1,2017-03-13T12:40:00Z,17.0020,-81.5010,5.0,4.0,80.0,5.0,'1111122,1111122,1111122' 
NDBC,ioos:station:wmo:42057:1,2017-03-13T13:50:00Z,17.0020,-81.5010,5.0,5.0,100.0,7.0,'1111122,1111122,1111122' 
NDBC,ioos:station:wmo:42057:1,2017-03-13T14:50:00Z,17.0020,-81.5010,5.0,3.0,80.0,5.0,'1111122,1111122,1111122' 
NDBC,ioos:station:wmo:42057:1,2017-03-13T15:40:00Z,17.0020,-81.5010,5.0,3.0,90.0,4.0,'1111122,1111122,1111122' 
NDBC,ioos:station:wmo:42057:1,2017-03-13T16:40:00Z,17.0020,-81.5010,5.0,3.0,80.0,5.0,'1111122,1111122,1111122' 
NDBC,ioos:station:wmo:42057:1,2017-03-13T17:40:00Z,17.0020,-81.5010,5.0,2.0,80.0,3.0,'1111122,1111122,1111122' 
NDBC,ioos:station:wmo:42057:1,2017-03-13T18:40:00Z,17.0020,-81.5010,5.0,2.0,90.0,3.0,'1111122,1111122,1111122' 
NDBC,ioos:station:wmo:42057:1,2017-03-13T19:50:00Z,17.0020,-81.5010,5.0,3.0,70.0,4.0,'1111122,1111122,1111122' 
NDBC,ioos:station:wmo:42057:1,2017-03-13T20:40:00Z,17.0020,-81.5010,5.0,3.0,80.0,4.0,'1111122,1111122,1111122' 
NDBC,ioos:station:wmo:42057:1,2017-03-13T21:40:00Z,17.0020,-81.5010,5.0,3.0,90.0,4.0,'1111122,1111122,1111122' 
NDBC,ioos:station:wmo:42057:1,2017-03-13T22:40:00Z,17.0020,-81.5010,5.0,3.0,90.0,5.0,'1111122,1111122,1111122' 
NDBC,ioos:station:wmo:42057:1,2017-03-13T23:50:00Z,17.0020,-81.5010,5.0,3.0,90.0,4.0,'1111122,1111122,1111122' 
NDBC,ioos:station:wmo:42057:1,2017-03-14T00:40:00Z,17.0020,-81.5010,5.0,3.0,80.0,4.0,'1111122,1111122,1111122' 
NDBC,ioos:station:wmo:42057:1,2017-03-14T01:20:00Z,17.0020,-81.5010,5.0,3.0,70.0,4.0,'1111122,1111122,1111122' 
NDBC,ioos:station:wmo:42057:1,2017-03-14T02:40:00Z,17.0020,-81.5010,5.0,3.0,60.0,4.0,'1111122,1111122,1111122' 
NDBC,ioos:station:wmo:42057:1,2017-03-14T03:40:00Z,17.0020,-81.5010,5.0,2.0,70.0,3.0,'1111122,1111122,1111122' 